• In Österreich
  • Länderverzeichnis
  • Für 7 Tage
  • Wassertemperatur
  • Satellitenkarten
  • Wetterkarte
  • News
  • Widgets
  • user-avatar
    Anmelden

    Stündliche Wetter Santa Fe

    Heute, 23 Februar, Freitag

    Zeit Temperatur Niederschläge Wind Luftdruck Luftfeuchtigkeit
    00:00 +22°C° 0 mm 3 m/S 759 mmHg 35%
    01:00 +21°C° 0 mm 3 m/S 759 mmHg 36%
    02:00 +21°C° 0 mm 3 m/S 759 mmHg 37%
    03:00 +20°C° 0 mm 2 m/S 759 mmHg 38%
    04:00 +19°C° 0 mm 2 m/S 759 mmHg 40%
    05:00 +19°C° 0 mm 2 m/S 759 mmHg 42%
    06:00 +21°C° 0 mm 2 m/S 760 mmHg 40%
    07:00 +24°C° 0 mm 3 m/S 760 mmHg 38%
    08:00 +26°C° 0 mm 3 m/S 760 mmHg 36%
    09:00 +28°C° 0 mm 3 m/S 760 mmHg 30%
    10:00 +31°C° 0 mm 3 m/S 760 mmHg 25%
    11:00 +35°C° 0 mm 3 m/S 760 mmHg 20%
    12:00 +36°C° 0 mm 3 m/S 759 mmHg 18%
    13:00 +37°C° 0 mm 3 m/S 759 mmHg 16%
    14:00 +38°C° 0 mm 3 m/S 758 mmHg 14%
    15:00 +38°C° 0 mm 3 m/S 758 mmHg 14%
    16:00 +38°C° 0 mm 4 m/S 757 mmHg 14%
    17:00 +38°C° 0 mm 4 m/S 757 mmHg 14%
    18:00 +35°C° 0 mm 4 m/S 757 mmHg 17%
    19:00 +33°C° 0 mm 4 m/S 758 mmHg 20%
    20:00 +29°C° 0 mm 4 m/S 758 mmHg 24%
    21:00 +28°C° 0 mm 4 m/S 758 mmHg 26%
    22:00 +27°C° 0 mm 4 m/S 759 mmHg 29%
    23:00 +27°C° 0 mm 4 m/S 759 mmHg 32%

    Morgen, 24 Februar, Samstag

    Zeit Temperatur Niederschläge Wind Luftdruck Luftfeuchtigkeit
    00:00 +26°C° 0 mm 4 m/S 760 mmHg 34%
    01:00 +25°C° 0 mm 4 m/S 760 mmHg 36%
    02:00 +23°C° 0 mm 4 m/S 760 mmHg 39%
    03:00 +24°C° 0 mm 3 m/S 760 mmHg 42%
    04:00 +22°C° 0 mm 3 m/S 760 mmHg 46%
    05:00 +21°C° 0 mm 3 m/S 760 mmHg 49%
    06:00 +22°C° 0 mm 3 m/S 761 mmHg 48%
    07:00 +25°C° 0 mm 4 m/S 761 mmHg 47%
    08:00 +27°C° 0 mm 4 m/S 761 mmHg 47%
    09:00 +29°C° 0 mm 4 m/S 761 mmHg 40%
    10:00 +32°C° 0 mm 4 m/S 761 mmHg 33%
    11:00 +35°C° 0 mm 4 m/S 761 mmHg 26%
    12:00 +36°C° 0 mm 4 m/S 760 mmHg 23%
    13:00 +37°C° 0 mm 4 m/S 760 mmHg 20%
    14:00 +38°C° 0 mm 4 m/S 759 mmHg 17%
    15:00 +38°C° 0 mm 4 m/S 759 mmHg 16%
    16:00 +39°C° 0 mm 5 m/S 758 mmHg 15%
    17:00 +39°C° 0 mm 5 m/S 758 mmHg 14%
    18:00 +35°C° 0 mm 4 m/S 758 mmHg 17%
    19:00 +33°C° 0 mm 4 m/S 759 mmHg 20%
    20:00 +29°C° 0 mm 4 m/S 759 mmHg 23%
    21:00 +29°C° 0 mm 4 m/S 759 mmHg 26%
    22:00 +28°C° 0 mm 4 m/S 760 mmHg 29%
    23:00 +27°C° 0 mm 5 m/S 760 mmHg 32%

    übermorgen, 25 Februar, Sonntag

    Zeit Temperatur Niederschläge Wind Luftdruck Luftfeuchtigkeit
    00:00 +27°C° 0 mm 4 m/S 760 mmHg 35%
    01:00 +26°C° 0 mm 4 m/S 760 mmHg 38%
    02:00 +25°C° 0 mm 4 m/S 760 mmHg 41%
    03:00 +25°C° 0 mm 3 m/S 760 mmHg 45%
    04:00 +24°C° 0 mm 3 m/S 760 mmHg 48%
    05:00 +22°C° 0 mm 3 m/S 760 mmHg 52%
    06:00 +25°C° 0 mm 3 m/S 761 mmHg 49%
    07:00 +26°C° 0 mm 4 m/S 761 mmHg 47%
    08:00 +28°C° 0 mm 4 m/S 762 mmHg 44%
    09:00 +30°C° 0 mm 4 m/S 761 mmHg 38%
    10:00 +34°C° 0 mm 4 m/S 761 mmHg 32%
    11:00 +36°C° 0 mm 3 m/S 761 mmHg 26%
    12:00 +37°C° 0 mm 4 m/S 760 mmHg 23%
    13:00 +38°C° 0 mm 4 m/S 759 mmHg 21%
    14:00 +40°C° 0 mm 4 m/S 758 mmHg 18%
    15:00 +40°C° 0 mm 4 m/S 758 mmHg 18%
    16:00 +40°C° 0 mm 5 m/S 757 mmHg 18%
    17:00 +40°C° 0 mm 5 m/S 757 mmHg 18%
    18:00 +37°C° 0 mm 5 m/S 757 mmHg 21%
    19:00 +35°C° 0 mm 5 m/S 757 mmHg 24%
    20:00 +33°C° 0 mm 5 m/S 758 mmHg 26%
    21:00 +32°C° 0 mm 4 m/S 758 mmHg 29%
    22:00 +30°C° 0 mm 4 m/S 759 mmHg 31%
    23:00 +29°C° 0 mm 4 m/S 759 mmHg 34%

    26 Februar, Montag

    Zeit Temperatur Niederschläge Wind Luftdruck Luftfeuchtigkeit
    00:00 +28°C° 0 mm 4 m/S 759 mmHg 35%
    01:00 +27°C° 0 mm 4 m/S 759 mmHg 37%
    02:00 +26°C° 0 mm 3 m/S 759 mmHg 38%
    03:00 +25°C° 0 mm 3 m/S 759 mmHg 42%
    04:00 +24°C° 0 mm 3 m/S 759 mmHg 46%
    05:00 +22°C° 0 mm 3 m/S 759 mmHg 50%
    06:00 +25°C° 0 mm 3 m/S 759 mmHg 50%
    07:00 +26°C° 0 mm 3 m/S 759 mmHg 50%
    08:00 +27°C° 0 mm 4 m/S 760 mmHg 50%
    09:00 +30°C° 0 mm 3 m/S 759 mmHg 41%
    10:00 +33°C° 0 mm 3 m/S 759 mmHg 33%
    11:00 +36°C° 0 mm 3 m/S 759 mmHg 25%
    12:00 +37°C° 0 mm 3 m/S 758 mmHg 22%
    13:00 +38°C° 0 mm 3 m/S 757 mmHg 19%
    14:00 +39°C° 0 mm 3 m/S 756 mmHg 17%
    15:00 +39°C° 0 mm 3 m/S 755 mmHg 16%
    16:00 +39°C° 0 mm 3 m/S 755 mmHg 16%
    17:00 +39°C° 0 mm 3 m/S 754 mmHg 16%
    18:00 +36°C° 0 mm 3 m/S 755 mmHg 18%
    19:00 +34°C° 0 mm 3 m/S 755 mmHg 21%
    20:00 +30°C° 0 mm 3 m/S 755 mmHg 24%
    21:00 +30°C° 0 mm 4 m/S 756 mmHg 27%
    22:00 +29°C° 0 mm 4 m/S 756 mmHg 29%
    23:00 +28°C° 0 mm 4 m/S 756 mmHg 32%

    27 Februar, Dienstag

    Zeit Temperatur Niederschläge Wind Luftdruck Luftfeuchtigkeit
    00:00 +27°C° 0 mm 4 m/S 756 mmHg 35%
    01:00 +27°C° 0 mm 4 m/S 756 mmHg 37%
    02:00 +26°C° 0 mm 3 m/S 755 mmHg 40%
    03:00 +25°C° 0 mm 3 m/S 756 mmHg 44%
    04:00 +25°C° 0 mm 3 m/S 756 mmHg 47%
    05:00 +24°C° 0 mm 3 m/S 756 mmHg 51%
    06:00 +26°C° 0 mm 3 m/S 756 mmHg 49%
    07:00 +27°C° 0 mm 4 m/S 757 mmHg 47%
    08:00 +29°C° 0 mm 4 m/S 757 mmHg 45%
    09:00 +33°C° 0 mm 4 m/S 757 mmHg 40%
    10:00 +35°C° 0 mm 3 m/S 757 mmHg 34%
    11:00 +38°C° 0 mm 3 m/S 756 mmHg 29%
    12:00 +38°C° 0 mm 2 m/S 756 mmHg 26%
    13:00 +39°C° 0 mm 2 m/S 755 mmHg 23%
    14:00 +40°C° 0 mm 1 m/S 754 mmHg 19%
    15:00 +39°C° 0 mm 1 m/S 754 mmHg 20%
    16:00 +37°C° 0 mm 1 m/S 754 mmHg 21%
    17:00 +36°C° 0 mm 1 m/S 754 mmHg 22%
    18:00 +35°C° 0 mm 1 m/S 754 mmHg 25%
    19:00 +33°C° 0 mm 1 m/S 755 mmHg 28%
    20:00 +31°C° 0 mm 1 m/S 755 mmHg 31%
    21:00 +30°C° 0 mm 2 m/S 755 mmHg 32%
    22:00 +30°C° 0 mm 2 m/S 755 mmHg 33%
    23:00 +29°C° 0 mm 3 m/S 755 mmHg 35%

    28 Februar, Mittwoch

    Zeit Temperatur Niederschläge Wind Luftdruck Luftfeuchtigkeit
    00:00 +29°C° 0 mm 3 m/S 755 mmHg 37%
    01:00 +28°C° 0 mm 3 m/S 755 mmHg 39%
    02:00 +27°C° 0 mm 3 m/S 755 mmHg 41%
    03:00 +27°C° 0 mm 3 m/S 756 mmHg 43%
    04:00 +26°C° 0 mm 2 m/S 756 mmHg 45%
    05:00 +25°C° 0 mm 2 m/S 756 mmHg 47%
    06:00 +27°C° 0 mm 2 m/S 756 mmHg 43%
    07:00 +29°C° 0 mm 2 m/S 757 mmHg 40%
    08:00 +31°C° 0 mm 2 m/S 757 mmHg 36%
    09:00 +35°C° 0 mm 2 m/S 757 mmHg 31%
    10:00 +37°C° 0 mm 2 m/S 757 mmHg 26%
    11:00 +40°C° 0 mm 2 m/S 757 mmHg 21%
    12:00 +40°C° 0 mm 2 m/S 756 mmHg 20%
    13:00 +40°C° 0 mm 2 m/S 755 mmHg 19%
    14:00 +40°C° 0 mm 2 m/S 755 mmHg 18%
    15:00 +40°C° 0 mm 2 m/S 755 mmHg 18%
    16:00 +40°C° 0 mm 2 m/S 754 mmHg 18%
    17:00 +39°C° 0 mm 2 m/S 754 mmHg 17%
    18:00 +38°C° 0 mm 3 m/S 754 mmHg 19%
    19:00 +36°C° 0 mm 3 m/S 755 mmHg 21%
    20:00 +35°C° 0 mm 3 m/S 755 mmHg 23%
    21:00 +34°C° 0 mm 3 m/S 755 mmHg 25%
    22:00 +33°C° 0 mm 4 m/S 755 mmHg 27%
    23:00 +32°C° 0 mm 4 m/S 756 mmHg 29%
    Mehr zeigen